Agadir Al Massira, Morocco

5:42 AM WEST on August 25, 2016 (GMT +0100)
Al-Massira

Weather History for GMAD - February, 2014

Change the Weather History Date:

Wednesday, February 19, 2014

  Actual Average Record
Temperature  
Mean Temperature 58 °F -  
Max Temperature 71 °F - - ()
Min Temperature 44 °F - - ()
Degree Days  
Heating Degree Days 8    
Growing Degree Days 8 (Base 50)    
Moisture  
Dew Point 43 °F    
Average Humidity 59    
Maximum Humidity 87    
Minimum Humidity 19    
Precipitation  
Precipitation 0.00 in - - ()
Sea Level Pressure  
Sea Level Pressure 30.10 in    
Wind  
Wind Speed 5 mph ()    
Max Wind Speed 12 mph    
Max Gust Speed -    
Visibility 6.0 miles    
Events      
T = Trace of Precipitation, MM = Missing Value Source: Averaged Metar Reports

Daily Weather History Graph

Daily Weather History Graph

Search for Another Location

Airport or City:

Trip Planner

Search our weather history database for the weather conditions in past years. The results will help you decide how hot, cold, wet, or windy it might be!

Date:

Astronomy

Feb. 19, 2014 Rise Set
Actual Time 7:14 AM WET 6:28 PM WET
Civil Twilight 6:49 AM WET 6:53 PM WET
Nautical Twilight 6:21 AM WET 7:21 PM WET
Astronomical Twilight 5:53 AM WET 7:49 PM WET
Moon 10:46 PM WET (2/19) 9:33 AM WET (2/19)
Length of Visible Light 12h 03m
Length of Day
11h 14m
Waning Gibbous, 81% of the Moon is Illuminated
Feb 19
Waning Gibbous
Feb 22
Last Quarter
Mar 1
New
Mar 8
First Quarter
Mar 16
Full

Hourly Weather History & Observations

Time (WET) Temp. Windchill Dew Point Humidity Pressure Visibility Wind Dir Wind Speed Gust Speed Precip Events Conditions
12:00 AM 55 °F - 45 °F 61% 30.08 in 6 mi South 11.5 mph - -  
12:00 AM 55.4 °F - 44.6 °F 67% 30.06 in - South 11.5 mph - N/A   Clear
1:00 AM 53.6 °F - 46.4 °F 77% 30.06 in - South 8.1 mph - N/A   Clear
2:00 AM 51.8 °F - 46.4 °F 82% 30.06 in - South 8.1 mph - N/A   Unknown
3:00 AM 52 °F - 47 °F 76% 30.07 in 6 mi South 4.6 mph - -  
3:00 AM 51.8 °F - 46.4 °F 82% 30.06 in - South 3.5 mph - N/A   Clear
4:00 AM 51.8 °F - 46.4 °F 82% 30.06 in - South 8.1 mph - N/A   Clear
5:00 AM 51.8 °F - 46.4 °F 82% 30.06 in - Variable 2.3 mph - N/A   Unknown
6:00 AM 50 °F - 45 °F 75% 30.09 in 6 mi Calm Calm - -  
6:00 AM 50.0 °F - 44.6 °F 82% 30.06 in - Calm Calm - N/A   Clear
7:00 AM 44.6 °F 43.1 °F 41.0 °F 87% 30.09 in - East 3.5 mph - N/A   Clear
8:00 AM 48.2 °F - 44.6 °F 87% 30.12 in - East 5.8 mph - N/A   Clear
9:00 AM 53 °F - 45 °F 67% 30.15 in 6 mi East 9.2 mph - -  
9:00 AM 53.6 °F - 44.6 °F 72% 30.12 in - East 9.2 mph - N/A   Clear
10:00 AM 57.2 °F - 46.4 °F 67% 30.15 in - East 3.5 mph - N/A   Clear
11:00 AM 62.6 °F - 44.6 °F 52% 30.15 in - Calm Calm - N/A   Clear
12:00 PM 65 °F - 43 °F 34% 30.14 in 6 mi South 2.3 mph - -  
12:00 PM 64.4 °F - 44.6 °F 49% 30.12 in - Variable 1.2 mph - N/A   Clear
1:00 PM 66.2 °F - 41.0 °F 40% 30.12 in - SSW 4.6 mph - N/A   Clear
2:00 PM 69.8 °F - 39.2 °F 33% 30.09 in - Variable 2.3 mph - N/A   Clear
3:00 PM 70 °F - 37 °F 19% 30.08 in 6 mi South 8.1 mph - -  
3:00 PM 69.8 °F - 37.4 °F 31% 30.06 in - South 6.9 mph - N/A   Clear
4:00 PM 69.8 °F - 41.0 °F 35% 30.06 in - SW 9.2 mph - N/A   Clear
5:00 PM 69.8 °F - 33.8 °F 27% 30.06 in - North - - N/A   Clear
5:10 PM 69.8 °F - 33.8 °F 27% 30.06 in - North - - N/A   Clear
6:00 PM 66 °F - 39 °F 26% 30.10 in 6 mi West 6.9 mph - -  
6:00 PM 66.2 °F - 39.2 °F 37% 30.09 in - West 6.9 mph - N/A   Clear
8:00 PM 57.2 °F - 39.2 °F 51% 30.12 in - Calm Calm - N/A   Clear
9:00 PM 57 °F - 45 °F 54% 30.15 in 6 mi Calm Calm - -  
9:00 PM 57.2 °F - 44.6 °F 63% 30.15 in - Calm Calm - N/A   Clear
10:00 PM 55.4 °F - 48.2 °F 77% 30.15 in - Calm Calm - N/A   Clear
11:00 PM 55.4 °F - 48.2 °F 77% 30.15 in - Calm Calm - N/A   Clear